STARLINK-30108, 56299

Orbit data source: Space-Track

STARLINK-30108, 56299 is a payload satellite owned by SpaceX/Seattle (US) in LEO that was launched on Wed, 19 Apr 2023 UTC via an FALCON 9 launch vehicle from the Air Force Eastern Test Range (AFETR). Payload-class satellites include a variety of spacecraft equipped with specific instruments for various scientific and technological missions. These include communications satellites like Starlink; space stations such as the ISS; scientific satellites like the Hubble; Earth observation satellites from companies like Planet Labs, Umbra, and HawkEye 360; GPS; miniature CubeSats for education and research; and military/defense satellites.

Loading next visibility...
Identifier
56299, 2023-056P
Orbit
LEO
Country
Flag of USUS
Related business
Manufacturer
SpaceX/Seattle
Mission
Operational Commercial Communications
Bus & Motor
STARLINK V2M, Unknown motor
Mass
730 kg wet, ~700 kg dry
Launch date (UTC)
2023-04-19 (3 years ago)
Launch vehicle
FALCON 9
Launch site
Air Force Eastern Test Range (AFETR)
Object type
Payload
Rocket body
Debris
Shape & HBR
Box + 2 Pan, 17.7 m
Radar Cross Section
33.884 m², Large (>1 m²)

Expand to show TLE details & history
Last TLE update: 17 hours ago

TLE from 17 hours ago
0 STARLINK-30108
1 56299U 23056P   25348.91238935 -.00000571  00000-0 -27186-4 0  9992
2 56299  43.0055 298.5156 0001361 269.1908  90.8778 15.02536778147478
Epoch: 2025-12-14T21:53Z
TLE epoch observation values (Epoch: 2025-12-14T21:53:50.439Z)
Latitude
-0.00006°
Longitude
-113.76313°
Altitude
558.87 km
Speed
7.584 km/s
True Right ascension
19h 54m 03s
True Declination
0° 00' 00"
Sunlit
Object was in daylight at epoch
Visualization orbit readout
Latitude
Unknown
Longitude
Unknown
Altitude
Unknown
Speed
Unknown
Apparent Right ascension
Unknown
Apparent Declination
Unknown
Sunlit
N/A
Visualization observer readout
Local Sidereal Time
13:24:49
Azimuth
Unknown
Elevation
Unknown
Doppler factor
Unknown
Orbital elements
Apogee altitude
561.945 km
Perigee altitude
560.056 km
Semi-major axis
6,939.137 km
Eccentricity
0.00014
Inclination
43.0055°
RAAN
298.5156°
Arg. of periapsis
269.1908°
True anomaly
90.89339°
Mean anomaly
90.8778°
Eccentric anomaly
90.8856°
Mean motion
3.75478 °/min
Orbital period
95.88 mins
BSTAR
-0.000027186
Loading maneuver chart data...
Computing Atmospheric mass density...
Loading historical data...
Loading historical data...
Loading historical data...
Loading historical data...
Loading historical data...
Loading historical data...
Loading historical data...

Documentation

Showing up to 5 results
|